Precipitable_Water
0.17 0.10 0.09 0.09 0.09 0.10 0.13 0.14 0.14 0.12 0.13 0.12 0.12 0.12 0.12 0.12 0.12 0.14 0.14 0.15 0.17 0.15 0.14 0.15 0.15 0.16 0.17 0.19 0.20 0.22 0.23 0.24 0.23 0.23 0.23 0.23 0.23 0.23 0.23 0.23 0.23 0.23 0.23 0.23 0.23 0.23 0.22 0.22 0.22 0.22 0.23 0.23 0.23 0.22 0.22 0.21 0.21 0.20 0.20 0.20 0.20 0.21 0.21 0.21 0.23 0.24 0.24 0.22 0.22 0.22 0.20 0.19 0.20 0.20 0.21 0.21 0.22 0.23 0.23 0.24 0.24 0.25 0.26 0.26 0.26 0.26
0.16 0.10 0.11 0.12 0.12 0.12 0.12 0.16 0.15 0.13 0.13 0.12 0.12 0.12 0.12 0.12 0.11 0.13 0.13 0.15 0.17 0.15 0.13 0.15 0.15 0.17 0.18 0.19 0.20 0.22 0.22 0.22 0.22 0.23 0.23 0.23 0.22 0.22 0.22 0.22 0.22 0.22 0.23 0.23 0.22 0.22 0.22 0.22 0.22 0.22 0.22 0.23 0.22 0.22 0.21 0.20 0.19 0.19 0.19 0.19 0.20 0.20 0.20 0.23 0.24 0.24 0.24 0.23 0.21 0.20 0.19 0.20 0.20 0.20 0.20 0.20 0.22 0.23 0.24 0.25 0.25 0.25 0.25 0.26 0.26 0.27
0.11 0.10 0.13 0.15 0.14 0.15 0.13 0.14 0.14 0.13 0.13 0.13 0.12 0.12 0.12 0.11 0.13 0.13 0.14 0.16 0.17 0.15 0.13 0.15 0.15 0.17 0.18 0.19 0.21 0.22 0.22 0.22 0.22 0.22 0.22 0.21 0.21 0.21 0.21 0.21 0.21 0.21 0.21 0.21 0.21 0.21 0.21 0.22 0.23 0.23 0.22 0.21 0.19 0.19 0.18 0.18 0.18 0.18 0.18 0.19 0.19 0.20 0.22 0.24 0.25 0.24 0.22 0.22 0.21 0.20 0.20 0.20 0.20 0.22 0.22 0.23 0.24 0.25 0.25 0.25 0.25 0.25 0.25 0.25 0.25 0.26
0.09 0.10 0.15 0.18 0.14 0.13 0.12 0.13 0.13 0.13 0.14 0.13 0.13 0.12 0.11 0.13 0.12 0.10 0.12 0.15 0.16 0.15 0.13 0.15 0.16 0.17 0.19 0.20 0.21 0.22 0.22 0.21 0.21 0.21 0.20 0.20 0.20 0.20 0.20 0.21 0.21 0.21 0.20 0.20 0.20 0.21 0.22 0.22 0.21 0.20 0.19 0.19 0.18 0.17 0.17 0.18 0.18 0.18 0.18 0.19 0.19 0.19 0.22 0.23 0.21 0.20 0.18 0.18 0.20 0.21 0.21 0.21 0.21 0.20 0.22 0.23 0.24 0.24 0.25 0.25 0.25 0.25 0.25 0.26 0.26 0.27
0.11 0.13 0.18 0.19 0.15 0.13 0.12 0.13 0.13 0.13 0.12 0.13 0.13 0.12 0.12 0.12 0.13 0.13 0.13 0.14 0.15 0.16 0.17 0.18 0.15 0.15 0.17 0.18 0.19 0.21 0.22 0.21 0.21 0.20 0.20 0.20 0.20 0.20 0.21 0.21 0.21 0.20 0.20 0.20 0.21 0.21 0.20 0.20 0.19 0.18 0.17 0.17 0.17 0.17 0.17 0.18 0.18 0.18 0.18 0.19 0.19 0.20 0.24 0.22 0.20 0.19 0.20 0.19 0.19 0.22 0.22 0.20 0.19 0.20 0.19 0.18 0.18 0.20 0.22 0.24 0.24 0.24 0.26 0.26 0.26 0.27
0.12 0.16 0.19 0.17 0.15 0.14 0.13 0.13 0.13 0.14 0.12 0.12 0.13 0.13 0.13 0.14 0.13 0.14 0.14 0.14 0.12 0.11 0.17 0.14 0.11 0.12 0.17 0.18 0.18 0.19 0.20 0.19 0.19 0.19 0.19 0.19 0.19 0.20 0.20 0.20 0.20 0.20 0.21 0.21 0.19 0.19 0.18 0.18 0.17 0.17 0.17 0.17 0.17 0.17 0.18 0.18 0.16 0.15 0.15 0.15 0.17 0.19 0.20 0.20 0.20 0.21 0.22 0.21 0.20 0.20 0.21 0.19 0.18 0.16 0.16 0.15 0.15 0.17 0.18 0.19 0.22 0.23 0.24 0.26 0.27 0.27
0.13 0.17 0.17 0.15 0.14 0.14 0.14 0.13 0.14 0.15 0.12 0.12 0.12 0.15 0.15 0.14 0.14 0.14 0.14 0.13 0.10 0.09 0.12 0.16 0.11 0.10 0.16 0.16 0.17 0.18 0.18 0.18 0.18 0.18 0.18 0.18 0.19 0.19 0.20 0.20 0.20 0.20 0.20 0.19 0.18 0.18 0.17 0.17 0.17 0.17 0.16 0.16 0.16 0.17 0.17 0.15 0.14 0.13 0.13 0.15 0.16 0.17 0.17 0.18 0.18 0.18 0.19 0.19 0.20 0.20 0.20 0.22 0.21 0.19 0.18 0.18 0.18 0.17 0.18 0.19 0.19 0.20 0.22 0.23 0.24 0.25
0.14 0.15 0.16 0.16 0.15 0.14 0.14 0.13 0.15 0.16 0.14 0.12 0.15 0.15 0.15 0.14 0.14 0.14 0.13 0.12 0.12 0.14 0.14 0.15 0.14 0.11 0.11 0.15 0.18 0.19 0.17 0.17 0.17 0.17 0.18 0.18 0.19 0.20 0.20 0.20 0.20 0.19 0.19 0.18 0.17 0.17 0.17 0.16 0.16 0.15 0.15 0.14 0.15 0.16 0.15 0.13 0.12 0.12 0.12 0.12 0.13 0.15 0.16 0.17 0.17 0.18 0.19 0.20 0.21 0.21 0.21 0.22 0.23 0.22 0.21 0.20 0.19 0.19 0.18 0.18 0.18 0.19 0.20 0.20 0.21 0.22
0.15 0.14 0.15 0.14 0.15 0.14 0.13 0.15 0.16 0.17 0.15 0.14 0.15 0.16 0.15 0.15 0.15 0.14 0.13 0.12 0.12 0.12 0.10 0.13 0.15 0.12 0.11 0.14 0.19 0.18 0.16 0.16 0.16 0.17 0.17 0.18 0.19 0.19 0.20 0.19 0.19 0.19 0.18 0.17 0.16 0.16 0.16 0.15 0.15 0.14 0.13 0.13 0.15 0.14 0.13 0.12 0.11 0.11 0.11 0.11 0.11 0.11 0.12 0.13 0.14 0.16 0.16 0.17 0.18 0.19 0.19 0.19 0.21 0.20 0.20 0.21 0.22 0.21 0.19 0.17 0.17 0.18 0.18 0.19 0.21 0.21
0.16 0.16 0.16 0.18 0.16 0.13 0.16 0.17 0.18 0.18 0.14 0.15 0.17 0.17 0.17 0.16 0.15 0.14 0.13 0.12 0.11 0.10 0.09 0.10 0.13 0.10 0.10 0.13 0.15 0.17 0.16 0.16 0.16 0.17 0.17 0.18 0.19 0.19 0.19 0.19 0.18 0.18 0.17 0.16 0.16 0.15 0.15 0.14 0.14 0.13 0.13 0.13 0.14 0.13 0.12 0.11 0.10 0.10 0.10 0.10 0.10 0.10 0.10 0.11 0.11 0.12 0.12 0.13 0.14 0.15 0.17 0.17 0.17 0.18 0.18 0.18 0.19 0.20 0.20 0.18 0.17 0.17 0.17 0.18 0.19 0.19
0.16 0.22 0.24 0.20 0.16 0.18 0.19 0.19 0.19 0.18 0.17 0.18 0.17 0.16 0.14 0.14 0.13 0.13 0.13 0.12 0.10 0.08 0.09 0.11 0.12 0.12 0.08 0.10 0.13 0.14 0.15 0.17 0.17 0.17 0.17 0.18 0.18 0.19 0.18 0.18 0.17 0.17 0.16 0.16 0.16 0.15 0.14 0.14 0.13 0.13 0.12 0.12 0.13 0.12 0.11 0.10 0.10 0.10 0.10 0.10 0.09 0.10 0.10 0.10 0.11 0.11 0.11 0.11 0.11 0.12 0.13 0.14 0.15 0.16 0.17 0.17 0.17 0.18 0.19 0.19 0.18 0.18 0.17 0.18 0.17 0.18
0.16 0.19 0.21 0.20 0.24 0.21 0.21 0.17 0.19 0.19 0.18 0.18 0.16 0.15 0.14 0.11 0.12 0.11 0.11 0.12 0.09 0.07 0.10 0.12 0.12 0.12 0.09 0.10 0.14 0.17 0.17 0.17 0.16 0.16 0.16 0.17 0.17 0.18 0.18 0.17 0.17 0.17 0.16 0.16 0.15 0.13 0.13 0.13 0.12 0.12 0.11 0.11 0.11 0.10 0.09 0.09 0.09 0.09 0.09 0.09 0.09 0.10 0.10 0.11 0.11 0.11 0.11 0.11 0.11 0.12 0.13 0.14 0.15 0.17 0.18 0.18 0.17 0.18 0.18 0.18 0.18 0.18 0.18 0.17 0.17 0.18
0.13 0.15 0.19 0.18 0.24 0.21 0.18 0.16 0.16 0.17 0.17 0.16 0.16 0.15 0.12 0.10 0.10 0.08 0.10 0.08 0.08 0.08 0.10 0.12 0.13 0.10 0.10 0.11 0.15 0.15 0.16 0.16 0.16 0.16 0.16 0.16 0.17 0.17 0.17 0.17 0.17 0.17 0.16 0.15 0.13 0.13 0.13 0.12 0.11 0.10 0.09 0.09 0.09 0.09 0.09 0.09 0.09 0.09 0.09 0.09 0.09 0.10 0.10 0.11 0.11 0.11 0.11 0.11 0.10 0.11 0.13 0.15 0.17 0.17 0.18 0.18 0.18 0.19 0.19 0.19 0.18 0.17 0.17 0.17 0.17 0.17
0.13 0.16 0.17 0.17 0.19 0.20 0.19 0.15 0.14 0.13 0.15 0.16 0.15 0.14 0.12 0.10 0.09 0.08 0.09 0.10 0.09 0.10 0.12 0.12 0.14 0.10 0.11 0.13 0.15 0.15 0.15 0.16 0.16 0.16 0.17 0.17 0.17 0.17 0.17 0.17 0.16 0.16 0.15 0.14 0.13 0.12 0.12 0.11 0.10 0.09 0.08 0.09 0.09 0.09 0.09 0.09 0.10 0.10 0.10 0.10 0.10 0.10 0.11 0.11 0.11 0.11 0.11 0.11 0.10 0.11 0.14 0.17 0.18 0.18 0.18 0.18 0.19 0.20 0.19 0.19 0.18 0.18 0.18 0.17 0.17 0.17
0.10 0.11 0.13 0.16 0.15 0.20 0.19 0.19 0.17 0.15 0.16 0.16 0.18 0.16 0.13 0.12 0.10 0.08 0.09 0.08 0.09 0.09 0.11 0.13 0.11 0.09 0.09 0.10 0.16 0.16 0.16 0.17 0.17 0.17 0.17 0.18 0.18 0.17 0.17 0.16 0.15 0.14 0.14 0.13 0.12 0.12 0.11 0.10 0.09 0.09 0.08 0.09 0.09 0.09 0.09 0.10 0.10 0.10 0.10 0.10 0.10 0.10 0.10 0.10 0.10 0.11 0.11 0.11 0.10 0.10 0.13 0.17 0.18 0.17 0.18 0.20 0.21 0.21 0.20 0.20 0.19 0.18 0.18 0.18 0.18 0.18
0.13 0.13 0.16 0.20 0.19 0.21 0.19 0.21 0.20 0.18 0.16 0.17 0.18 0.18 0.13 0.12 0.15 0.10 0.11 0.11 0.11 0.10 0.09 0.10 0.10 0.12 0.12 0.17 0.17 0.17 0.17 0.17 0.18 0.18 0.18 0.18 0.17 0.17 0.16 0.15 0.14 0.14 0.13 0.13 0.12 0.11 0.10 0.09 0.09 0.09 0.09 0.09 0.09 0.10 0.10 0.10 0.10 0.10 0.10 0.10 0.11 0.10 0.10 0.10 0.10 0.10 0.11 0.11 0.10 0.10 0.13 0.15 0.15 0.16 0.17 0.19 0.21 0.21 0.20 0.19 0.18 0.18 0.18 0.18 0.17 0.17
0.13 0.12 0.17 0.18 0.21 0.20 0.21 0.21 0.19 0.20 0.13 0.16 0.17 0.13 0.13 0.18 0.16 0.13 0.13 0.13 0.13 0.11 0.08 0.12 0.11 0.13 0.15 0.16 0.16 0.16 0.16 0.16 0.17 0.17 0.17 0.17 0.17 0.16 0.15 0.14 0.14 0.13 0.12 0.12 0.11 0.10 0.10 0.10 0.09 0.09 0.09 0.10 0.10 0.10 0.10 0.11 0.11 0.11 0.11 0.11 0.11 0.11 0.10 0.10 0.10 0.10 0.11 0.11 0.10 0.10 0.13 0.14 0.14 0.14 0.15 0.18 0.18 0.19 0.19 0.19 0.18 0.18 0.17 0.17 0.16 0.16
0.13 0.13 0.18 0.17 0.16 0.22 0.22 0.21 0.20 0.20 0.20 0.18 0.14 0.15 0.18 0.19 0.17 0.14 0.10 0.11 0.10 0.08 0.08 0.11 0.10 0.10 0.11 0.09 0.15 0.14 0.15 0.15 0.16 0.17 0.17 0.16 0.16 0.14 0.14 0.13 0.13 0.12 0.11 0.11 0.11 0.10 0.10 0.10 0.10 0.10 0.10 0.10 0.10 0.10 0.11 0.11 0.12 0.12 0.12 0.12 0.11 0.11 0.10 0.10 0.10 0.10 0.11 0.10 0.10 0.11 0.13 0.14 0.14 0.14 0.14 0.15 0.15 0.15 0.15 0.16 0.17 0.16 0.15 0.15 0.15 0.15
0.19 0.12 0.15 0.18 0.19 0.20 0.21 0.19 0.17 0.20 0.22 0.18 0.16 0.22 0.14 0.12 0.11 0.13 0.12 0.08 0.08 0.07 0.08 0.08 0.10 0.10 0.11 0.11 0.13 0.13 0.13 0.14 0.14 0.15 0.15 0.14 0.14 0.13 0.13 0.12 0.12 0.11 0.11 0.11 0.10 0.10 0.10 0.10 0.10 0.10 0.10 0.10 0.11 0.11 0.11 0.12 0.12 0.12 0.12 0.12 0.12 0.11 0.11 0.10 0.10 0.10 0.10 0.10 0.10 0.12 0.13 0.14 0.14 0.14 0.14 0.14 0.15 0.16 0.15 0.15 0.15 0.15 0.15 0.14 0.14 0.14
0.20 0.13 0.13 0.19 0.18 0.19 0.19 0.17 0.13 0.14 0.17 0.20 0.21 0.17 0.19 0.15 0.12 0.11 0.12 0.12 0.11 0.08 0.08 0.07 0.09 0.08 0.12 0.12 0.13 0.13 0.13 0.13 0.14 0.14 0.14 0.13 0.13 0.12 0.12 0.11 0.11 0.11 0.11 0.11 0.10 0.10 0.10 0.10 0.10 0.10 0.10 0.10 0.11 0.11 0.12 0.12 0.13 0.12 0.12 0.12 0.12 0.11 0.10 0.10 0.09 0.10 0.10 0.10 0.10 0.11 0.13 0.13 0.13 0.13 0.13 0.14 0.14 0.14 0.14 0.14 0.14 0.14 0.14 0.14 0.14 0.14
0.17 0.20 0.12 0.15 0.19 0.19 0.14 0.16 0.14 0.15 0.14 0.16 0.16 0.15 0.15 0.14 0.16 0.14 0.13 0.11 0.10 0.09 0.08 0.08 0.06 0.08 0.11 0.14 0.14 0.14 0.14 0.14 0.14 0.14 0.13 0.13 0.12 0.12 0.12 0.11 0.11 0.11 0.11 0.10 0.10 0.09 0.10 0.10 0.10 0.10 0.11 0.12 0.12 0.13 0.13 0.13 0.13 0.13 0.13 0.12 0.11 0.10 0.10 0.09 0.09 0.09 0.09 0.09 0.10 0.11 0.11 0.12 0.13 0.14 0.14 0.13 0.13 0.13 0.14 0.14 0.14 0.13 0.13 0.13 0.14 0.15
0.16 0.16 0.13 0.14 0.15 0.14 0.15 0.18 0.17 0.17 0.18 0.17 0.16 0.14 0.15 0.14 0.12 0.11 0.09 0.13 0.12 0.10 0.08 0.07 0.06 0.09 0.13 0.16 0.15 0.14 0.15 0.15 0.14 0.13 0.12 0.12 0.12 0.12 0.11 0.11 0.11 0.10 0.10 0.09 0.09 0.09 0.10 0.10 0.11 0.11 0.12 0.13 0.13 0.13 0.13 0.13 0.13 0.13 0.12 0.12 0.11 0.10 0.09 0.08 0.08 0.08 0.08 0.09 0.10 0.11 0.13 0.13 0.13 0.12 0.12 0.12 0.13 0.13 0.13 0.13 0.13 0.13 0.13 0.13 0.15 0.16
0.20 0.18 0.16 0.14 0.15 0.14 0.16 0.17 0.19 0.20 0.19 0.18 0.17 0.15 0.16 0.15 0.14 0.12 0.09 0.10 0.11 0.10 0.11 0.10 0.08 0.08 0.15 0.16 0.16 0.15 0.14 0.13 0.13 0.13 0.12 0.12 0.11 0.11 0.11 0.11 0.10 0.10 0.09 0.09 0.09 0.10 0.10 0.11 0.11 0.12 0.13 0.13 0.13 0.13 0.13 0.13 0.13 0.12 0.12 0.11 0.10 0.09 0.08 0.08 0.08 0.08 0.08 0.10 0.11 0.12 0.13 0.13 0.12 0.12 0.13 0.12 0.12 0.12 0.12 0.12 0.12 0.12 0.12 0.12 0.13 0.15
0.24 0.18 0.14 0.13 0.14 0.16 0.17 0.19 0.20 0.20 0.19 0.17 0.16 0.17 0.15 0.13 0.14 0.13 0.12 0.13 0.10 0.10 0.08 0.08 0.07 0.08 0.14 0.16 0.16 0.14 0.13 0.13 0.12 0.12 0.11 0.11 0.11 0.11 0.10 0.10 0.09 0.08 0.09 0.10 0.10 0.11 0.11 0.12 0.13 0.13 0.13 0.13 0.13 0.13 0.13 0.13 0.13 0.12 0.11 0.10 0.10 0.09 0.08 0.08 0.08 0.08 0.09 0.11 0.11 0.12 0.12 0.12 0.12 0.12 0.12 0.11 0.11 0.11 0.11 0.12 0.12 0.12 0.12 0.12 0.12 0.13
0.17 0.17 0.16 0.13 0.12 0.12 0.13 0.15 0.15 0.18 0.18 0.16 0.15 0.16 0.16 0.15 0.15 0.14 0.13 0.13 0.09 0.09 0.09 0.08 0.05 0.08 0.13 0.14 0.13 0.12 0.13 0.12 0.12 0.12 0.12 0.11 0.10 0.09 0.09 0.09 0.09 0.10 0.10 0.11 0.11 0.12 0.12 0.12 0.13 0.13 0.13 0.13 0.13 0.13 0.13 0.13 0.12 0.11 0.10 0.10 0.09 0.09 0.08 0.08 0.08 0.09 0.10 0.11 0.11 0.11 0.11 0.11 0.12 0.12 0.11 0.11 0.11 0.11 0.11 0.12 0.12 0.12 0.12 0.12 0.12 0.13
0.19 0.17 0.16 0.13 0.11 0.10 0.10 0.11 0.12 0.13 0.15 0.16 0.16 0.15 0.15 0.15 0.14 0.13 0.10 0.11 0.09 0.09 0.10 0.08 0.08 0.10 0.12 0.12 0.11 0.12 0.12 0.12 0.12 0.11 0.11 0.10 0.09 0.08 0.09 0.10 0.10 0.11 0.11 0.12 0.12 0.11 0.12 0.12 0.13 0.13 0.13 0.13 0.13 0.13 0.13 0.12 0.11 0.10 0.10 0.10 0.09 0.09 0.08 0.08 0.09 0.10 0.11 0.11 0.11 0.11 0.11 0.11 0.11 0.11 0.11 0.11 0.11 0.11 0.12 0.12 0.12 0.13 0.13 0.13 0.13 0.13
0.18 0.19 0.18 0.16 0.15 0.14 0.15 0.16 0.17 0.18 0.16 0.14 0.14 0.15 0.14 0.15 0.14 0.13 0.12 0.10 0.09 0.10 0.09 0.09 0.09 0.09 0.09 0.09 0.10 0.11 0.11 0.10 0.10 0.09 0.08 0.08 0.09 0.10 0.11 0.11 0.11 0.12 0.12 0.12 0.11 0.11 0.13 0.12 0.13 0.13 0.13 0.12 0.13 0.12 0.12 0.11 0.11 0.10 0.10 0.09 0.09 0.09 0.09 0.09 0.11 0.12 0.11 0.11 0.11 0.11 0.11 0.11 0.11 0.11 0.11 0.11 0.11 0.12 0.12 0.12 0.13 0.13 0.13 0.14 0.15 0.15
0.18 0.16 0.17 0.17 0.17 0.17 0.18 0.17 0.18 0.18 0.15 0.15 0.14 0.14 0.14 0.14 0.14 0.13 0.11 0.10 0.13 0.10 0.07 0.09 0.10 0.08 0.08 0.09 0.10 0.10 0.10 0.09 0.08 0.07 0.08 0.09 0.10 0.11 0.10 0.11 0.12 0.11 0.11 0.11 0.11 0.12 0.12 0.12 0.12 0.12 0.11 0.12 0.12 0.11 0.11 0.11 0.10 0.10 0.09 0.09 0.10 0.10 0.10 0.10 0.12 0.12 0.12 0.12 0.11 0.11 0.11 0.11 0.11 0.11 0.11 0.12 0.12 0.13 0.13 0.13 0.13 0.13 0.13 0.13 0.14 0.15
0.18 0.16 0.17 0.17 0.17 0.18 0.18 0.18 0.18 0.17 0.16 0.16 0.15 0.14 0.13 0.14 0.13 0.12 0.12 0.13 0.13 0.10 0.08 0.10 0.09 0.07 0.08 0.10 0.10 0.09 0.09 0.08 0.07 0.08 0.09 0.11 0.11 0.09 0.10 0.11 0.11 0.10 0.10 0.10 0.11 0.11 0.11 0.10 0.11 0.10 0.10 0.10 0.11 0.10 0.10 0.10 0.09 0.09 0.09 0.10 0.10 0.10 0.11 0.12 0.12 0.12 0.12 0.12 0.11 0.11 0.11 0.11 0.11 0.12 0.12 0.12 0.12 0.13 0.13 0.13 0.13 0.13 0.13 0.14 0.14 0.14
0.19 0.17 0.18 0.18 0.17 0.17 0.17 0.18 0.18 0.16 0.15 0.15 0.14 0.14 0.14 0.14 0.14 0.14 0.13 0.14 0.13 0.11 0.11 0.09 0.08 0.07 0.09 0.09 0.09 0.08 0.08 0.08 0.08 0.09 0.10 0.10 0.08 0.08 0.10 0.10 0.10 0.09 0.09 0.10 0.10 0.10 0.09 0.09 0.08 0.08 0.08 0.09 0.10 0.09 0.09 0.09 0.09 0.09 0.09 0.10 0.10 0.11 0.12 0.13 0.13 0.12 0.12 0.12 0.11 0.12 0.12 0.12 0.12 0.12 0.12 0.12 0.12 0.13 0.13 0.14 0.14 0.14 0.14 0.14 0.14 0.14
0.19 0.16 0.19 0.18 0.16 0.15 0.17 0.17 0.17 0.16 0.15 0.14 0.14 0.14 0.14 0.14 0.14 0.14 0.14 0.13 0.12 0.10 0.09 0.08 0.07 0.07 0.09 0.10 0.08 0.08 0.08 0.09 0.09 0.09 0.08 0.06 0.07 0.10 0.09 0.08 0.08 0.09 0.09 0.08 0.08 0.07 0.07 0.07 0.08 0.08 0.08 0.08 0.08 0.08 0.08 0.08 0.09 0.10 0.10 0.11 0.12 0.12 0.13 0.13 0.12 0.12 0.12 0.12 0.12 0.12 0.12 0.12 0.12 0.13 0.13 0.13 0.13 0.14 0.14 0.15 0.15 0.15 0.15 0.15 0.16 0.16
0.20 0.17 0.19 0.18 0.15 0.14 0.16 0.16 0.15 0.15 0.15 0.14 0.13 0.14 0.14 0.14 0.13 0.14 0.12 0.13 0.11 0.09 0.08 0.07 0.06 0.06 0.08 0.08 0.07 0.07 0.08 0.08 0.09 0.08 0.06 0.06 0.09 0.09 0.08 0.07 0.07 0.09 0.08 0.07 0.07 0.07 0.07 0.07 0.07 0.07 0.08 0.08 0.08 0.08 0.08 0.09 0.10 0.10 0.11 0.12 0.12 0.12 0.13 0.12 0.12 0.12 0.12 0.12 0.12 0.12 0.12 0.12 0.13 0.13 0.13 0.13 0.14 0.14 0.15 0.15 0.16 0.16 0.16 0.16 0.17 0.18
0.20 0.19 0.17 0.17 0.14 0.13 0.15 0.16 0.15 0.15 0.13 0.12 0.13 0.15 0.15 0.15 0.15 0.14 0.13 0.12 0.11 0.09 0.07 0.06 0.06 0.07 0.07 0.07 0.07 0.07 0.08 0.08 0.08 0.06 0.05 0.08 0.09 0.08 0.08 0.08 0.09 0.08 0.07 0.07 0.07 0.08 0.07 0.07 0.08 0.08 0.08 0.08 0.08 0.08 0.10 0.11 0.11 0.11 0.11 0.12 0.12 0.13 0.13 0.12 0.12 0.12 0.12 0.12 0.12 0.12 0.13 0.13 0.13 0.13 0.13 0.13 0.14 0.14 0.15 0.15 0.16 0.16 0.16 0.17 0.18 0.18
0.21 0.20 0.18 0.19 0.14 0.14 0.16 0.15 0.15 0.13 0.10 0.11 0.15 0.17 0.16 0.14 0.14 0.13 0.11 0.11 0.09 0.09 0.08 0.09 0.07 0.07 0.06 0.07 0.08 0.07 0.07 0.07 0.06 0.05 0.07 0.09 0.09 0.09 0.09 0.08 0.09 0.08 0.08 0.08 0.08 0.08 0.08 0.08 0.08 0.08 0.09 0.09 0.10 0.11 0.12 0.12 0.12 0.12 0.12 0.12 0.13 0.12 0.12 0.12 0.12 0.12 0.12 0.12 0.12 0.13 0.13 0.13 0.13 0.13 0.13 0.14 0.14 0.15 0.15 0.15 0.16 0.17 0.17 0.18 0.18 0.19
0.20 0.20 0.18 0.19 0.15 0.14 0.15 0.15 0.12 0.09 0.11 0.16 0.18 0.18 0.17 0.16 0.15 0.13 0.12 0.10 0.09 0.09 0.09 0.07 0.06 0.06 0.08 0.08 0.07 0.07 0.07 0.06 0.05 0.06 0.08 0.11 0.10 0.10 0.09 0.09 0.10 0.09 0.09 0.10 0.10 0.10 0.09 0.10 0.10 0.11 0.11 0.12 0.12 0.12 0.12 0.12 0.12 0.12 0.12 0.12 0.12 0.12 0.12 0.12 0.12 0.12 0.12 0.12 0.13 0.13 0.13 0.13 0.13 0.14 0.14 0.14 0.15 0.15 0.15 0.16 0.16 0.17 0.17 0.18 0.18 0.18
0.20 0.19 0.19 0.17 0.17 0.15 0.14 0.13 0.09 0.10 0.15 0.17 0.17 0.17 0.17 0.16 0.15 0.13 0.10 0.09 0.10 0.09 0.08 0.07 0.07 0.07 0.07 0.06 0.06 0.06 0.04 0.04 0.05 0.07 0.09 0.11 0.10 0.10 0.09 0.09 0.10 0.10 0.11 0.11 0.11 0.10 0.11 0.11 0.11 0.11 0.11 0.12 0.12 0.12 0.11 0.12 0.12 0.12 0.12 0.12 0.12 0.12 0.12 0.12 0.12 0.12 0.13 0.13 0.13 0.13 0.13 0.14 0.14 0.14 0.14 0.15 0.15 0.15 0.16 0.16 0.17 0.17 0.18 0.18 0.19 0.20
0.22 0.21 0.19 0.16 0.18 0.13 0.14 0.13 0.12 0.15 0.14 0.15 0.15 0.16 0.16 0.14 0.13 0.11 0.08 0.08 0.09 0.08 0.09 0.07 0.07 0.07 0.07 0.06 0.06 0.05 0.04 0.04 0.05 0.07 0.10 0.10 0.10 0.11 0.10 0.11 0.11 0.11 0.11 0.11 0.11 0.11 0.12 0.12 0.11 0.11 0.11 0.11 0.12 0.11 0.12 0.12 0.12 0.12 0.12 0.12 0.12 0.12 0.12 0.12 0.12 0.13 0.13 0.13 0.13 0.14 0.14 0.14 0.14 0.15 0.15 0.15 0.15 0.16 0.16 0.17 0.17 0.18 0.19 0.19 0.19 0.20
0.24 0.20 0.20 0.17 0.16 0.17 0.14 0.12 0.12 0.11 0.10 0.13 0.16 0.18 0.18 0.16 0.14 0.12 0.09 0.07 0.07 0.09 0.09 0.08 0.07 0.06 0.05 0.05 0.04 0.04 0.04 0.04 0.05 0.07 0.09 0.10 0.10 0.11 0.11 0.11 0.11 0.12 0.11 0.11 0.11 0.12 0.12 0.11 0.11 0.11 0.11 0.11 0.11 0.12 0.12 0.12 0.12 0.12 0.12 0.12 0.12 0.12 0.12 0.12 0.13 0.13 0.13 0.13 0.14 0.14 0.14 0.15 0.15 0.15 0.15 0.16 0.16 0.16 0.17 0.17 0.18 0.18 0.19 0.19 0.20 0.20
0.23 0.23 0.21 0.19 0.16 0.16 0.15 0.13 0.12 0.11 0.12 0.16 0.16 0.17 0.17 0.16 0.13 0.11 0.08 0.05 0.08 0.10 0.09 0.08 0.07 0.06 0.05 0.05 0.04 0.04 0.03 0.03 0.05 0.07 0.09 0.10 0.11 0.11 0.11 0.11 0.11 0.11 0.11 0.11 0.11 0.11 0.11 0.11 0.11 0.11 0.11 0.11 0.11 0.12 0.12 0.12 0.12 0.12 0.12 0.12 0.12 0.12 0.12 0.13 0.13 0.13 0.13 0.14 0.14 0.15 0.15 0.15 0.16 0.16 0.16 0.16 0.17 0.17 0.17 0.18 0.18 0.19 0.20 0.20 0.20 0.20
0.20 0.20 0.19 0.17 0.16 0.16 0.15 0.13 0.12 0.13 0.13 0.16 0.17 0.17 0.16 0.15 0.12 0.09 0.05 0.05 0.09 0.09 0.09 0.07 0.06 0.05 0.04 0.04 0.04 0.04 0.04 0.04 0.05 0.07 0.09 0.10 0.11 0.11 0.11 0.11 0.11 0.11 0.11 0.11 0.12 0.11 0.11 0.11 0.11 0.11 0.11 0.11 0.11 0.12 0.12 0.12 0.12 0.12 0.12 0.12 0.12 0.12 0.13 0.13 0.13 0.14 0.14 0.14 0.15 0.15 0.16 0.16 0.16 0.16 0.16 0.17 0.17 0.17 0.18 0.18 0.18 0.18 0.18 0.18 0.19 0.19
0.18 0.19 0.19 0.16 0.16 0.15 0.15 0.14 0.14 0.14 0.17 0.18 0.17 0.17 0.16 0.14 0.10 0.07 0.05 0.07 0.10 0.09 0.08 0.07 0.06 0.05 0.04 0.03 0.04 0.03 0.04 0.06 0.07 0.09 0.11 0.11 0.11 0.11 0.11 0.11 0.11 0.11 0.11 0.11 0.11 0.11 0.11 0.11 0.11 0.11 0.11 0.11 0.12 0.12 0.12 0.12 0.12 0.12 0.12 0.12 0.12 0.12 0.13 0.13 0.14 0.14 0.14 0.14 0.15 0.15 0.15 0.16 0.16 0.16 0.16 0.17 0.17 0.17 0.17 0.18 0.18 0.18 0.19 0.19 0.19 0.20
0.18 0.18 0.18 0.18 0.16 0.15 0.15 0.13 0.13 0.14 0.17 0.18 0.17 0.16 0.15 0.11 0.08 0.07 0.10 0.11 0.10 0.09 0.07 0.06 0.05 0.05 0.04 0.04 0.04 0.04 0.05 0.07 0.09 0.10 0.10 0.10 0.10 0.10 0.11 0.11 0.11 0.11 0.11 0.11 0.11 0.11 0.11 0.11 0.11 0.11 0.11 0.12 0.12 0.12 0.12 0.12 0.12 0.12 0.12 0.12 0.12 0.13 0.13 0.13 0.13 0.13 0.13 0.14 0.14 0.15 0.15 0.15 0.16 0.16 0.17 0.17 0.18 0.18 0.18 0.19 0.19 0.20 0.20 0.20 0.21 0.21
0.18 0.17 0.16 0.16 0.17 0.17 0.16 0.14 0.12 0.11 0.15 0.19 0.17 0.14 0.15 0.10 0.10 0.12 0.11 0.10 0.09 0.07 0.06 0.06 0.05 0.04 0.04 0.03 0.04 0.04 0.06 0.08 0.09 0.09 0.10 0.10 0.10 0.10 0.10 0.10 0.11 0.10 0.11 0.11 0.11 0.11 0.11 0.11 0.11 0.11 0.11 0.11 0.12 0.12 0.12 0.12 0.12 0.12 0.12 0.12 0.13 0.13 0.13 0.13 0.13 0.13 0.13 0.14 0.14 0.15 0.15 0.16 0.16 0.17 0.17 0.18 0.18 0.18 0.18 0.19 0.20 0.20 0.21 0.21 0.21 0.21
0.22 0.18 0.17 0.18 0.19 0.15 0.15 0.14 0.13 0.15 0.18 0.19 0.16 0.13 0.13 0.14 0.14 0.13 0.12 0.09 0.08 0.06 0.06 0.05 0.05 0.04 0.04 0.03 0.04 0.06 0.07 0.08 0.09 0.09 0.09 0.10 0.10 0.10 0.10 0.10 0.11 0.11 0.11 0.11 0.11 0.11 0.11 0.11 0.11 0.11 0.11 0.11 0.12 0.12 0.12 0.12 0.12 0.12 0.12 0.12 0.13 0.13 0.13 0.13 0.13 0.13 0.14 0.14 0.14 0.15 0.16 0.16 0.17 0.17 0.18 0.18 0.18 0.19 0.19 0.20 0.20 0.20 0.21 0.21 0.21 0.21
0.23 0.20 0.20 0.18 0.21 0.19 0.17 0.17 0.19 0.20 0.19 0.19 0.17 0.15 0.15 0.14 0.14 0.13 0.11 0.08 0.07 0.07 0.07 0.05 0.04 0.04 0.04 0.04 0.05 0.07 0.07 0.08 0.08 0.09 0.09 0.09 0.10 0.10 0.10 0.10 0.10 0.10 0.11 0.11 0.11 0.11 0.11 0.11 0.11 0.11 0.11 0.11 0.12 0.12 0.12 0.13 0.12 0.12 0.12 0.13 0.13 0.13 0.13 0.13 0.13 0.14 0.14 0.14 0.15 0.15 0.16 0.17 0.17 0.18 0.18 0.18 0.18 0.18 0.19 0.20 0.20 0.20 0.21 0.21 0.21 0.21
0.25 0.24 0.24 0.22 0.21 0.22 0.22 0.21 0.21 0.20 0.19 0.18 0.17 0.17 0.15 0.14 0.13 0.12 0.10 0.08 0.07 0.07 0.06 0.05 0.04 0.04 0.04 0.05 0.06 0.07 0.08 0.08 0.08 0.09 0.09 0.09 0.10 0.10 0.10 0.10 0.10 0.11 0.11 0.11 0.11 0.11 0.11 0.11 0.11 0.11 0.11 0.11 0.12 0.12 0.13 0.13 0.12 0.12 0.12 0.13 0.13 0.13 0.13 0.13 0.13 0.13 0.14 0.14 0.15 0.15 0.16 0.17 0.17 0.18 0.18 0.18 0.18 0.18 0.18 0.19 0.20 0.20 0.20 0.21 0.21 0.21
0.24 0.24 0.23 0.21 0.22 0.20 0.17 0.20 0.19 0.19 0.18 0.17 0.16 0.16 0.15 0.14 0.12 0.11 0.09 0.08 0.07 0.06 0.06 0.05 0.05 0.05 0.05 0.05 0.06 0.07 0.08 0.08 0.08 0.08 0.09 0.09 0.10 0.10 0.10 0.10 0.10 0.10 0.11 0.11 0.11 0.11 0.11 0.11 0.11 0.11 0.11 0.12 0.12 0.13 0.12 0.12 0.12 0.13 0.13 0.12 0.12 0.13 0.13 0.13 0.13 0.13 0.14 0.14 0.15 0.15 0.16 0.16 0.17 0.18 0.18 0.18 0.19 0.19 0.19 0.20 0.20 0.20 0.20 0.20 0.21 0.21
0.21 0.25 0.22 0.22 0.21 0.20 0.18 0.20 0.21 0.21 0.19 0.17 0.16 0.14 0.13 0.13 0.11 0.10 0.09 0.08 0.07 0.07 0.06 0.05 0.06 0.05 0.05 0.06 0.07 0.07 0.08 0.08 0.08 0.08 0.09 0.09 0.10 0.10 0.10 0.10 0.10 0.11 0.11 0.11 0.11 0.12 0.11 0.11 0.12 0.12 0.12 0.12 0.12 0.12 0.12 0.12 0.12 0.13 0.13 0.12 0.12 0.13 0.13 0.13 0.13 0.13 0.14 0.14 0.15 0.15 0.16 0.17 0.17 0.18 0.18 0.19 0.19 0.19 0.20 0.20 0.20 0.20 0.20 0.21 0.21 0.21
0.23 0.25 0.21 0.22 0.21 0.21 0.21 0.21 0.21 0.19 0.17 0.16 0.15 0.15 0.14 0.12 0.11 0.10 0.09 0.08 0.07 0.06 0.06 0.06 0.06 0.05 0.05 0.06 0.07 0.07 0.08 0.08 0.08 0.08 0.09 0.09 0.10 0.10 0.10 0.10 0.11 0.11 0.11 0.11 0.11 0.12 0.12 0.12 0.12 0.12 0.12 0.12 0.13 0.13 0.12 0.12 0.12 0.13 0.13 0.13 0.13 0.13 0.13 0.13 0.13 0.13 0.14 0.14 0.15 0.15 0.16 0.17 0.17 0.17 0.18 0.19 0.19 0.20 0.20 0.19 0.20 0.20 0.21 0.23 0.23 0.23
0.24 0.21 0.23 0.22 0.20 0.19 0.19 0.19 0.20 0.16 0.15 0.15 0.14 0.14 0.13 0.12 0.11 0.10 0.09 0.08 0.07 0.06 0.06 0.06 0.05 0.06 0.06 0.07 0.07 0.08 0.08 0.08 0.08 0.08 0.09 0.09 0.10 0.10 0.11 0.11 0.11 0.11 0.11 0.11 0.11 0.12 0.12 0.12 0.12 0.12 0.12 0.13 0.13 0.13 0.13 0.13 0.13 0.13 0.13 0.13 0.13 0.13 0.13 0.13 0.13 0.13 0.14 0.14 0.15 0.16 0.16 0.17 0.17 0.18 0.18 0.18 0.19 0.19 0.20 0.21 0.22 0.22 0.21 0.22 0.24 0.25
0.23 0.23 0.23 0.21 0.20 0.20 0.21 0.22 0.21 0.19 0.17 0.15 0.15 0.14 0.13 0.12 0.11 0.09 0.09 0.08 0.07 0.07 0.07 0.06 0.05 0.05 0.06 0.07 0.08 0.08 0.08 0.08 0.08 0.08 0.09 0.09 0.10 0.11 0.11 0.11 0.11 0.11 0.11 0.12 0.12 0.12 0.12 0.12 0.12 0.12 0.13 0.13 0.13 0.13 0.13 0.13 0.13 0.13 0.13 0.13 0.14 0.14 0.14 0.14 0.14 0.14 0.14 0.15 0.15 0.16 0.16 0.17 0.17 0.18 0.18 0.18 0.18 0.19 0.19 0.20 0.21 0.22 0.23 0.23 0.24 0.24
Wind_Speed
24 24 25 25 25 26 26 24 24 25 24 26 28 28 29 31 31 31 32 32 30 32 33 32 33 33 32 31 27 23 20 19 20 20 21 21 22 23 24 25 26 27 28 29 30 32 33 35 36 37 38 39 40 42 45 47 49 50 51 51 52 53 54 54 55 55 56 57 58 59 59 60 59 59 59 60 60 60 61 61 61 60 60 60 61 61
25 25 26 25 25 26 26 25 25 26 26 27 29 30 30 30 32 33 32 33 32 32 34 32 32 32 31 29 26 22 20 20 20 19 20 21 22 24 25 26 27 28 29 30 31 33 34 36 37 38 40 41 43 46 48 49 50 51 51 52 53 54 54 55 55 56 57 58 59 59 59 59 58 58 58 58 58 59 59 60 60 60 60 60 60 60
26 25 26 26 26 25 27 26 26 27 28 29 29 30 31 31 33 35 32 33 33 33 36 33 29 30 29 27 25 22 20 19 19 18 20 21 23 25 26 27 27 28 29 30 32 34 36 37 38 40 42 43 46 48 49 49 50 51 52 53 55 55 55 55 56 58 59 59 59 59 58 58 58 57 57 57 58 58 59 59 59 59 60 60 60 60
26 26 26 27 27 26 27 28 28 29 29 29 30 30 31 32 33 35 34 35 34 34 36 31 26 28 28 25 24 22 20 18 18 19 20 23 25 26 26 26 27 28 30 32 34 35 37 38 40 42 44 45 47 48 49 50 51 52 53 55 57 57 56 57 58 59 59 59 59 58 58 57 57 57 57 57 57 58 58 58 59 59 59 60 60 60
25 26 26 27 28 28 28 30 29 30 31 30 30 29 31 33 33 34 36 38 37 35 32 27 26 27 26 24 22 21 21 20 20 20 22 25 26 25 25 25 27 29 31 33 35 37 38 40 42 43 45 46 47 48 49 50 52 54 56 57 58 57 57 58 58 58 58 58 57 57 57 57 57 57 57 57 58 58 58 59 59 59 59 59 60 60
26 27 27 27 29 29 28 30 30 30 32 32 30 29 30 34 34 35 38 39 38 35 30 26 27 27 24 22 22 23 23 22 23 23 24 26 25 25 25 26 28 30 31 33 36 38 39 41 43 45 46 48 49 49 50 52 54 57 58 58 57 56 56 56 56 56 57 57 57 57 58 58 57 57 57 57 57 57 57 58 58 58 58 59 59 59
27 28 28 27 28 29 29 30 30 30 32 33 30 29 31 34 35 37 38 37 36 34 30 28 27 26 24 23 23 23 23 24 25 25 26 26 25 25 26 28 29 30 32 35 37 38 41 43 45 47 48 50 51 51 52 54 56 57 57 56 55 55 55 55 55 55 55 55 56 56 56 56 55 55 55 54 54 54 54 55 55 55 56 56 57 57
28 29 29 28 29 30 30 31 30 29 31 32 31 32 34 35 36 38 37 35 34 34 31 29 26 25 25 25 23 23 24 25 26 26 26 25 25 26 28 29 30 32 34 37 38 40 42 45 47 49 51 52 52 52 54 56 56 56 55 55 54 54 54 54 53 53 53 53 53 52 52 51 51 51 51 51 51 50 50 51 51 51 51 52 53 54
28 28 29 29 30 31 30 31 30 29 30 32 33 34 34 35 36 37 36 34 33 31 31 29 25 24 26 25 23 23 25 26 26 26 26 26 26 28 29 30 32 34 36 38 40 42 44 47 49 50 52 52 52 53 55 55 55 54 54 54 53 53 53 52 52 52 51 50 50 49 49 48 47 47 47 48 48 47 47 48 48 47 48 48 49 49
28 29 28 28 30 31 30 31 31 29 31 34 35 35 35 34 35 36 34 33 32 29 28 29 25 24 27 26 23 25 26 26 26 26 26 26 27 29 30 32 33 36 38 39 41 43 46 49 50 51 53 53 53 54 54 54 54 53 53 52 52 52 51 51 50 49 48 48 48 47 46 46 46 46 45 45 45 45 44 44 45 44 45 45 46 47
31 30 28 28 31 32 31 32 31 29 32 36 36 36 37 36 36 35 31 31 31 28 26 27 26 26 27 27 24 25 26 25 26 27 27 28 29 31 32 33 35 38 40 41 42 46 49 50 50 52 54 53 53 53 53 53 53 52 51 51 51 50 49 48 47 47 47 46 46 45 45 45 45 44 44 43 43 42 42 42 42 42 42 42 43 44
33 31 28 31 33 33 33 33 33 32 33 36 35 36 38 38 37 35 32 32 31 29 29 29 29 27 26 27 26 25 26 25 26 27 28 29 30 32 34 35 37 39 41 42 45 48 50 51 52 54 54 53 52 52 52 52 51 50 50 49 49 48 47 46 45 45 45 45 44 44 44 43 43 42 41 41 40 40 39 39 38 38 38 39 39 40
33 30 30 33 33 33 34 35 35 35 35 36 35 35 37 37 37 35 34 33 30 31 32 30 30 28 28 29 27 25 27 27 27 28 28 29 31 33 35 36 38 40 42 45 48 50 52 53 55 55 54 52 51 51 51 51 50 49 48 47 46 46 44 43 43 43 43 43 43 42 41 41 40 39 39 39 39 38 37 36 35 35 35 35 36 36
34 31 32 34 33 33 33 35 37 38 38 36 34 34 34 33 35 36 34 33 33 34 34 32 30 29 30 30 26 26 27 27 27 28 28 30 31 34 36 37 40 43 45 48 50 52 55 55 55 54 53 51 50 49 49 49 48 47 46 45 44 43 42 42 42 41 41 41 41 40 39 38 37 37 37 37 37 35 34 34 33 34 34 34 34 34
33 32 33 34 33 34 33 33 35 37 38 35 32 32 33 32 34 35 34 33 36 38 37 33 29 28 31 31 28 27 27 26 27 28 28 31 32 35 38 40 43 46 48 50 53 55 56 55 54 53 52 50 48 48 48 48 47 46 45 43 42 41 40 40 40 40 39 40 40 39 37 36 35 35 36 35 34 33 33 33 33 34 34 33 33 32
31 31 33 34 34 33 34 34 35 36 36 34 33 33 34 34 33 35 36 35 36 38 36 32 30 29 31 32 30 28 28 27 28 29 30 33 35 38 41 44 46 48 51 53 55 56 55 54 53 51 50 49 47 47 47 47 46 45 44 42 40 40 39 39 39 38 38 38 38 37 36 35 35 35 35 34 33 33 34 34 34 34 33 32 32 32
32 33 34 36 35 33 34 37 36 34 35 35 35 35 36 35 33 34 38 36 35 36 35 31 31 32 32 32 31 29 29 29 29 30 33 36 38 41 45 47 49 52 54 55 55 55 54 52 51 50 49 47 46 46 47 46 45 44 42 40 39 39 39 39 38 37 37 38 37 36 35 35 35 35 35 34 34 34 34 34 33 33 32 32 32 33
33 35 36 35 35 35 37 38 35 34 35 35 35 37 38 37 35 34 36 35 33 34 35 33 33 34 33 32 31 31 32 32 32 33 36 40 43 45 48 50 53 54 54 55 54 53 52 51 50 49 48 46 45 46 46 45 43 42 40 39 39 39 39 38 38 37 37 37 36 35 34 35 35 35 35 35 36 35 34 33 33 32 32 32 33 33
33 36 37 35 35 38 39 38 37 37 35 34 35 37 38 39 40 37 34 34 34 33 35 37 37 34 33 33 33 33 33 35 36 39 42 45 46 48 51 53 54 54 53 54 54 52 51 50 49 48 47 45 45 45 44 43 41 40 39 38 39 39 38 38 38 37 38 37 35 33 33 34 34 35 35 35 35 34 34 33 33 33 33 33 33 33
34 34 36 36 37 39 40 39 39 39 37 36 37 37 38 38 39 39 36 35 34 32 35 39 38 34 33 34 34 34 34 37 41 44 46 48 49 50 52 53 53 53 53 54 54 53 51 50 48 47 46 44 43 43 42 41 40 39 38 38 39 39 38 38 38 37 37 36 34 34 34 35 35 35 34 34 34 34 34 33 33 33 33 33 33 33
35 33 34 39 40 40 40 39 38 39 39 39 39 40 40 39 39 40 39 36 34 33 34 37 37 36 36 35 33 34 38 42 46 48 47 47 49 51 52 52 53 54 55 55 54 53 50 48 47 45 43 42 42 42 41 40 39 37 37 38 38 38 38 38 37 36 36 35 34 34 34 34 33 33 33 33 34 33 33 33 33 33 33 32 32 32
35 34 35 40 42 42 42 39 37 38 38 37 39 41 41 40 39 39 39 39 38 35 35 36 37 38 37 33 32 37 44 47 47 47 47 48 50 51 52 53 54 55 55 55 53 50 47 46 44 42 40 40 41 41 41 39 37 36 37 38 38 38 38 37 36 35 35 34 33 33 33 32 33 33 33 32 32 32 33 33 34 34 33 32 31 30
35 35 36 39 40 40 42 41 39 39 38 37 39 41 41 41 40 38 38 42 43 40 38 36 36 37 36 33 37 45 50 49 47 47 49 50 51 53 54 55 55 55 54 53 50 47 44 43 40 39 39 40 40 40 39 36 35 36 37 37 37 37 37 35 34 34 33 32 32 33 32 32 32 32 31 31 32 33 33 34 34 33 33 32 31 30
35 35 38 41 41 41 41 41 40 40 40 41 41 41 42 43 41 39 39 42 42 42 41 38 36 37 37 38 46 52 52 48 48 50 51 52 53 55 56 56 55 53 51 48 46 43 42 40 39 38 39 39 39 38 36 35 35 36 36 37 37 37 36 34 33 33 32 31 31 32 32 32 31 31 31 32 33 33 33 33 33 32 32 32 31 30
35 35 38 40 42 44 44 43 44 44 43 43 43 43 43 44 44 42 42 42 40 41 43 40 38 40 42 48 54 53 49 47 48 50 52 55 56 56 55 53 52 50 47 45 43 42 41 39 38 37 37 37 38 36 35 35 36 36 36 36 36 35 34 33 32 31 31 31 31 31 32 32 31 31 32 32 32 32 32 32 31 31 30 30 30 29
35 36 37 37 38 41 42 43 46 48 47 45 45 46 46 46 45 44 44 43 41 42 43 40 41 47 52 55 55 50 47 49 51 53 55 56 55 54 52 51 49 47 44 42 42 41 40 39 37 36 36 37 36 35 35 35 35 35 35 35 34 33 32 32 31 30 30 31 31 31 31 32 32 32 31 30 30 30 29 29 29 29 28 28 27 27
36 36 36 35 35 37 39 42 44 46 46 47 48 49 48 46 45 44 45 44 43 44 44 42 47 54 58 56 52 49 50 54 55 57 56 54 52 51 50 49 47 44 42 41 41 40 38 37 37 36 37 37 34 34 34 34 34 33 33 32 32 31 32 31 30 30 30 30 31 31 31 31 31 30 30 28 28 27 27 27 27 27 27 26 25 25
36 38 37 36 36 37 40 43 45 44 44 46 49 48 47 46 46 46 45 45 46 45 46 50 54 56 57 54 51 52 55 57 57 57 55 52 51 50 49 48 45 42 42 42 40 38 37 37 36 35 36 36 34 34 34 32 32 32 31 31 31 31 32 31 30 30 30 29 29 29 29 29 29 28 27 26 25 25 25 25 25 25 25 25 24 23
36 37 38 39 40 41 41 43 45 44 43 45 46 45 46 47 48 48 47 47 47 45 49 56 58 55 54 52 52 56 59 58 57 55 53 51 52 51 49 45 43 43 44 42 38 37 37 37 36 36 37 36 34 33 32 31 32 31 31 31 31 32 33 31 29 28 28 28 28 28 27 27 27 26 25 24 23 23 23 22 22 22 22 22 22 22
36 38 39 40 42 44 44 43 44 45 46 46 45 43 46 48 49 49 48 48 49 49 52 57 56 52 50 51 55 60 60 57 54 52 52 53 53 50 45 43 44 44 42 39 38 37 38 37 37 37 36 34 33 32 32 32 32 31 30 31 32 32 31 28 27 26 26 26 26 26 25 25 24 23 22 21 20 20 19 19 18 18 18 19 19 20
38 39 40 41 43 44 45 45 46 47 47 46 45 45 48 50 51 50 50 50 53 55 56 56 53 50 50 53 59 59 58 56 53 52 54 53 50 45 43 44 45 43 40 39 39 39 38 37 35 34 34 33 33 33 33 32 31 30 30 31 31 30 27 25 25 25 25 24 24 23 22 21 20 19 18 17 16 15 15 15 15 15 15 16 16 17
38 39 41 42 43 44 46 48 50 50 47 44 44 47 50 51 50 51 52 54 56 58 58 56 53 52 54 58 59 57 56 55 52 54 54 49 45 43 43 44 43 40 40 41 40 39 36 35 34 34 33 33 33 33 32 30 29 29 30 30 28 26 24 24 23 23 23 22 22 21 19 18 17 15 13 12 11 10 10 11 11 11 12 13 13 14
38 40 42 42 42 44 47 49 50 48 46 44 43 46 51 52 52 53 55 57 57 56 54 54 54 55 58 59 58 58 56 53 52 53 50 45 43 42 43 44 42 40 41 41 39 38 36 35 35 35 35 34 34 32 30 29 29 29 29 27 25 24 23 23 22 21 21 21 21 20 18 17 15 13 11 9 8 7 7 7 8 9 10 10 11 11
38 40 41 40 40 44 47 49 48 45 44 43 42 45 51 54 56 57 58 59 57 53 51 54 57 58 59 59 59 58 55 52 52 50 44 40 41 41 43 43 41 41 42 41 39 38 37 37 37 36 35 34 32 30 29 29 29 28 26 24 23 23 23 22 21 21 21 21 20 19 17 16 15 13 11 9 7 6 5 5 6 6 7 8 8 9
39 40 40 40 40 42 45 48 47 44 43 43 43 47 51 54 56 58 59 58 54 52 54 58 60 60 60 59 59 57 54 52 50 45 39 39 41 42 44 44 42 43 43 40 40 40 39 38 37 35 34 32 30 30 30 29 27 25 23 23 23 22 22 21 21 20 20 20 19 18 17 16 15 13 11 10 8 6 5 5 4 5 5 6 7 7
39 39 40 40 40 43 46 46 44 43 44 43 45 50 53 54 57 59 60 56 51 51 57 62 62 62 62 61 60 58 55 51 45 39 37 40 42 43 44 45 44 44 43 41 41 41 38 37 36 34 33 32 31 31 29 27 25 23 23 23 22 22 21 21 21 20 19 18 18 18 17 16 15 14 12 10 9 7 6 5 4 4 5 5 6 6
37 38 40 41 40 42 45 44 43 44 44 43 47 52 54 56 58 59 58 54 51 54 61 63 63 64 64 62 61 59 55 47 38 35 38 42 43 44 46 45 44 43 42 41 41 39 37 36 35 35 34 32 30 29 27 25 24 23 23 23 22 21 21 20 20 20 19 18 17 17 17 16 15 14 13 11 10 8 7 6 5 5 4 4 5 5
38 38 39 40 40 41 43 44 45 45 43 43 48 51 53 58 60 58 54 51 53 60 64 64 64 66 64 62 61 59 53 44 37 36 40 43 44 46 47 46 45 43 42 41 39 37 36 36 36 34 33 30 28 27 26 24 24 24 23 22 21 20 20 20 20 19 18 18 18 17 16 15 15 14 13 12 10 9 8 7 6 6 5 5 5 5
39 38 38 39 40 41 42 41 41 41 42 45 50 53 56 59 60 57 53 53 57 63 66 66 66 66 64 62 61 57 50 44 40 40 43 45 46 47 47 46 45 43 41 40 38 37 37 36 34 32 30 28 27 27 26 25 24 24 23 22 21 20 20 20 20 19 19 18 17 17 16 15 14 13 12 12 11 10 9 8 7 7 7 6 6 6
39 39 40 41 41 42 41 39 39 39 41 46 51 55 58 60 58 55 53 55 62 66 66 66 66 64 63 61 58 53 47 44 42 43 45 46 46 47 47 46 44 42 40 38 37 37 36 35 32 31 30 28 28 27 26 25 24 24 22 21 20 20 20 20 19 19 18 17 17 16 15 15 14 13 13 12 12 11 10 10 9 9 8 7 7 7
39 39 40 41 42 43 41 40 41 41 41 46 52 56 59 60 57 54 53 57 64 67 65 65 65 64 63 61 56 50 46 44 44 44 45 46 46 46 46 45 43 40 38 37 36 36 35 33 31 31 30 29 28 27 26 25 24 23 22 21 20 20 20 20 19 18 17 16 16 15 15 15 14 14 14 13 12 12 11 11 10 10 9 9 8 8
39 39 40 41 43 44 42 42 43 42 43 51 57 58 58 58 55 54 56 59 63 64 64 64 64 63 63 60 54 50 47 45 44 44 45 45 45 46 46 44 41 39 36 35 35 35 33 32 31 31 30 29 28 27 26 25 24 24 23 21 21 21 20 20 18 17 16 16 15 15 15 14 14 14 14 13 13 12 11 11 10 10 10 9 9 9
37 38 40 41 42 43 42 42 42 42 47 56 59 56 55 55 53 55 58 60 61 62 63 63 62 63 63 59 54 51 48 46 45 45 45 45 45 45 44 42 40 38 36 34 34 33 32 32 31 31 30 29 28 27 27 26 25 25 23 22 22 21 20 19 18 17 16 15 15 15 14 14 14 14 13 13 13 12 12 11 11 10 10 10 11 11
36 37 39 40 41 42 41 40 41 43 49 55 55 52 52 54 54 56 58 59 61 62 62 62 62 62 62 59 55 52 48 46 46 46 45 45 45 44 43 41 39 37 35 33 32 32 32 31 31 31 31 30 29 28 28 27 26 25 24 23 22 21 19 18 17 17 16 15 15 15 15 14 14 14 13 13 13 12 12 12 11 11 11 12 13 13
35 36 37 38 39 39 38 39 42 45 48 51 51 50 53 55 55 56 57 59 60 61 61 62 62 62 61 58 55 52 49 47 47 47 46 45 45 44 42 39 38 36 34 32 31 31 31 31 31 31 31 30 30 29 29 28 27 26 24 23 21 20 19 18 17 17 16 16 15 15 15 15 15 14 14 13 13 12 12 12 12 12 13 14 15 15
35 35 36 38 39 39 39 40 43 45 49 50 49 50 52 54 54 56 58 59 59 60 61 61 61 61 60 58 56 53 50 48 48 47 46 46 45 43 40 38 37 35 33 31 31 31 31 31 31 31 31 31 31 30 30 29 27 25 24 22 21 19 19 18 18 17 16 16 15 15 15 15 15 15 14 14 13 13 12 12 12 13 14 15 15 16
35 36 37 38 40 41 41 42 45 48 50 50 50 51 53 54 54 56 58 58 59 60 61 61 60 60 59 57 56 54 52 49 48 46 46 46 45 43 40 37 36 35 33 31 30 30 30 30 30 31 31 31 31 31 30 29 27 25 24 22 20 19 19 18 18 18 17 16 15 15 15 15 15 14 14 14 14 13 12 12 13 13 14 15 15 16
35 36 37 38 39 40 41 42 46 48 48 47 49 52 53 54 55 56 58 58 59 60 60 60 60 60 58 57 56 55 52 50 48 47 46 46 45 42 39 37 36 34 33 32 30 29 29 29 30 31 31 31 31 30 30 29 27 25 24 22 21 20 19 19 18 18 17 16 15 15 15 15 15 15 14 14 14 14 13 13 13 13 13 14 15 16
35 36 37 38 40 40 41 43 47 48 47 47 50 52 54 55 56 57 58 58 59 59 60 60 60 60 58 57 57 55 53 51 49 47 47 47 45 43 39 37 36 34 33 32 30 29 29 29 29 30 30 30 30 30 29 28 27 25 23 22 21 20 20 19 19 18 18 17 16 15 16 16 15 15 14 14 14 13 13 13 13 13 13 14 14 15
35 36 37 39 41 42 43 45 48 48 47 49 52 53 54 55 56 57 58 59 59 60 60 60 60 60 58 57 57 56 54 52 50 48 47 47 46 43 40 37 36 35 34 32 30 29 28 28 28 29 30 30 30 29 28 27 26 25 23 22 21 20 20 20 19 18 18 17 16 16 16 16 16 16 15 14 14 14 13 13 13 13 13 14 14 15
34 35 36 38 39 41 43 46 47 47 47 49 51 52 53 54 55 56 57 58 59 60 60 60 60 60 59 58 57 57 55 53 51 49 47 47 46 44 41 38 36 35 34 32 31 29 28 28 28 28 29 29 29 28 27 26 26 24 23 22 21 20 20 19 18 18 17 17 16 16 16 16 16 16 15 15 14 14 14 14 14 13 13 14 15 15
Wind_Direction
356 355 353 348 343 341 338 338 337 334 332 330 328 326 324 322 321 320 317 316 319 317 313 313 313 313 311 309 306 300 296 293 288 286 284 284 285 285 283 282 281 281 282 283 287 289 289 290 291 291 292 291 289 290 290 290 290 290 290 289 288 288 287 286 286 285 285 285 285 284 283 282 281 279 278 276 274 273 271 270 269 268 267 265 264 263
357 356 350 345 342 341 340 339 338 336 334 332 329 326 325 324 321 320 318 318 322 319 315 316 317 314 312 310 307 302 298 294 288 285 285 286 287 287 284 283 283 283 284 286 290 291 291 291 292 292 293 292 292 292 293 292 292 291 291 290 290 290 289 288 287 287 287 287 286 285 284 282 280 279 278 276 274 272 271 270 269 267 266 265 263 262
357 353 346 344 345 345 344 343 340 337 335 332 330 328 326 325 323 321 320 321 323 320 316 318 317 313 313 311 308 304 299 292 288 287 288 289 290 289 286 284 285 285 287 289 291 293 293 293 293 294 294 294 294 295 294 294 294 294 294 293 292 292 290 289 288 288 288 287 286 285 283 281 280 279 277 276 274 272 271 270 269 267 266 265 263 261
354 349 346 348 348 347 344 343 342 339 336 332 330 329 326 327 327 324 323 323 322 318 316 318 317 313 312 311 308 305 298 292 290 290 292 294 294 291 287 286 287 288 290 292 293 294 295 295 296 296 297 297 296 296 296 296 297 296 296 295 294 292 290 290 290 289 288 287 285 283 281 280 279 278 277 276 274 273 271 270 269 268 267 265 264 262
351 346 347 349 349 349 344 342 342 339 336 332 330 328 325 326 325 322 323 323 322 320 318 319 317 311 309 307 305 301 296 292 291 292 295 298 297 292 289 289 290 292 293 295 296 296 297 297 298 298 298 298 298 298 298 298 298 298 297 296 295 293 291 291 291 289 288 287 285 283 281 280 279 278 277 276 275 273 272 270 269 268 267 266 265 263
350 347 348 347 347 349 346 342 341 339 337 334 332 329 325 327 325 322 323 324 323 322 322 322 316 311 308 304 301 298 295 293 293 294 296 299 297 293 291 292 294 294 295 297 298 298 299 299 299 299 300 300 299 298 298 299 299 299 298 297 295 294 293 293 292 290 289 288 286 284 282 280 279 279 278 277 275 273 272 271 269 268 267 266 265 263
350 350 351 349 347 348 346 341 339 339 339 336 335 333 329 329 327 324 325 325 323 322 322 320 314 310 308 302 299 298 297 294 294 296 298 299 297 294 293 294 295 296 296 298 299 300 301 301 301 301 301 301 300 299 299 300 301 301 299 298 296 295 294 293 293 291 290 288 286 285 283 281 279 279 278 277 276 274 272 271 269 268 267 266 264 263
350 350 351 351 349 348 345 341 339 340 339 335 335 337 333 330 327 326 326 325 323 323 323 321 314 310 309 305 300 298 297 296 296 297 298 298 297 295 294 295 296 297 299 300 300 301 303 303 303 302 302 302 300 300 301 302 302 301 299 298 296 295 295 294 294 293 291 290 288 286 284 282 281 281 280 279 277 275 273 271 270 268 267 265 264 263
351 351 350 349 349 347 344 340 338 341 338 333 335 337 333 330 328 327 328 326 327 328 325 323 320 314 312 311 305 299 297 297 297 297 298 297 296 296 296 296 298 299 301 302 302 303 305 305 305 304 303 302 301 301 302 302 302 301 299 297 296 296 295 295 294 293 292 291 289 287 286 284 282 282 281 280 278 276 274 272 270 268 267 265 264 263
351 350 349 350 349 346 343 340 340 341 336 334 336 336 333 332 331 332 331 330 332 331 325 323 323 318 315 314 308 301 299 298 298 298 297 296 297 297 297 297 300 302 303 303 304 306 308 308 306 305 305 303 302 302 302 302 302 300 299 297 296 296 296 296 295 293 292 291 289 287 286 285 283 282 282 281 280 277 275 272 270 268 267 265 264 263
350 351 351 351 349 347 345 342 342 339 337 338 339 338 336 335 336 337 336 336 336 332 327 324 324 322 318 316 312 305 304 304 301 300 298 297 297 298 298 299 302 304 304 304 306 308 308 307 306 306 306 304 302 303 302 303 302 301 300 298 297 296 296 296 295 294 294 293 291 288 286 285 284 283 283 282 280 278 276 273 270 268 267 265 264 263
352 354 353 350 349 350 348 345 344 342 342 343 341 339 338 338 340 341 341 341 339 333 329 327 327 324 318 317 316 311 309 309 305 302 300 298 297 299 300 301 303 304 305 306 307 308 308 307 307 308 307 304 303 303 303 303 303 302 301 299 298 297 297 296 295 295 295 294 293 290 287 285 284 283 283 282 280 278 275 273 271 269 267 266 265 264
354 353 352 350 351 351 349 347 346 345 346 344 341 342 342 341 342 342 341 341 338 333 331 330 329 325 316 316 317 312 310 309 306 304 302 299 299 301 302 303 305 306 306 307 308 309 309 309 309 309 307 305 303 303 303 304 304 303 302 301 299 297 296 295 294 295 295 295 294 292 288 285 284 283 282 281 280 277 274 273 272 271 270 268 267 265
355 353 353 352 351 352 352 349 347 346 346 344 344 345 345 343 341 339 339 339 335 332 331 331 330 325 320 320 318 315 313 311 308 306 303 303 303 304 305 306 308 308 308 308 309 310 310 310 309 309 308 305 303 303 305 305 305 304 303 302 300 298 296 295 294 294 294 294 294 292 288 286 285 284 283 281 279 275 272 272 272 272 271 270 267 265
356 353 353 353 351 352 353 350 346 344 344 345 346 346 345 345 340 336 337 336 333 331 332 334 332 326 323 324 323 320 317 314 312 309 307 307 307 308 308 308 309 309 308 309 310 311 311 310 310 309 308 306 304 304 306 307 306 304 303 302 300 299 298 297 295 294 293 293 294 291 287 285 285 284 283 281 277 273 272 273 273 273 272 269 267 265
356 351 351 352 351 353 353 349 348 347 346 346 347 347 345 343 338 334 334 332 331 331 333 335 332 327 325 325 325 322 319 316 313 311 310 310 310 311 310 310 309 310 310 310 311 312 311 311 310 309 308 306 305 306 307 307 306 305 304 302 301 300 300 298 296 294 293 293 293 290 286 284 285 285 283 280 277 275 274 274 274 273 271 268 267 266
356 351 351 352 351 354 353 349 349 349 347 346 347 345 343 342 341 336 334 335 335 333 335 336 332 330 329 326 325 322 318 317 314 312 313 314 313 312 311 311 311 311 312 312 313 313 312 311 310 309 308 307 306 307 308 307 306 305 304 303 302 301 301 299 297 295 295 294 292 287 284 284 285 284 282 280 279 277 276 274 273 271 269 267 267 267
355 351 352 354 353 352 352 350 349 350 349 348 346 345 344 345 346 342 338 339 338 333 335 337 332 331 331 328 327 324 320 319 316 315 316 316 315 313 312 313 313 313 314 314 314 313 312 311 310 309 308 307 306 307 308 307 306 305 304 303 302 302 302 300 298 296 296 295 292 286 282 282 283 283 282 281 280 278 276 274 272 270 269 268 268 267
355 352 353 357 354 350 352 353 352 352 353 350 347 347 349 347 345 346 343 340 337 333 333 334 332 332 331 329 329 327 324 322 320 319 318 317 316 314 315 315 315 315 315 315 315 314 313 311 310 309 308 307 307 308 308 307 306 305 304 303 303 303 302 301 299 297 296 295 291 285 282 282 282 283 282 281 279 277 276 274 272 271 271 270 269 268
355 353 353 356 354 351 353 355 353 352 353 352 350 350 351 347 344 345 344 341 338 334 332 332 334 335 333 331 331 328 325 324 323 321 320 318 317 317 317 317 317 317 316 316 316 315 313 311 310 310 308 307 308 309 309 308 307 306 305 304 304 304 303 302 300 298 296 295 291 287 285 284 284 283 281 280 278 277 276 274 274 273 273 272 270 269
356 354 350 352 355 354 354 354 352 351 352 353 353 351 349 348 346 344 344 344 342 337 334 333 333 335 335 334 333 329 327 326 323 321 320 319 319 319 319 319 318 318 317 317 316 315 313 312 311 310 309 309 310 310 310 309 308 307 306 306 306 305 304 303 301 298 296 294 291 289 288 286 286 285 283 280 278 276 274 273 273 274 273 272 271 268
357 354 350 350 354 354 353 353 353 352 353 353 352 350 348 347 347 345 345 346 344 339 335 331 330 334 337 336 334 332 329 327 324 322 321 321 320 320 320 320 319 319 318 317 317 316 315 313 312 311 311 311 311 311 311 310 310 309 308 308 308 307 306 304 301 298 296 294 292 291 289 288 288 286 284 281 278 276 275 273 273 273 272 271 269 267
357 356 353 351 352 352 352 354 356 355 355 354 352 351 350 349 349 347 343 342 341 338 334 331 331 335 338 337 333 331 330 328 326 324 323 322 322 322 322 321 320 319 319 318 318 318 317 316 315 314 313 313 313 313 313 312 312 311 310 310 310 309 308 305 302 300 297 295 293 292 290 289 288 286 284 281 279 278 276 274 272 271 271 269 267 265
358 357 354 351 352 354 355 357 358 357 355 353 352 352 351 350 349 346 341 340 340 339 339 336 334 337 338 334 331 330 331 330 328 326 325 325 324 324 323 322 322 321 321 321 321 321 320 319 318 316 315 315 315 316 315 315 314 313 312 312 312 311 309 307 304 302 299 296 295 293 291 290 288 285 284 283 281 279 277 274 272 270 269 268 265 263
358 357 354 352 352 354 356 358 357 356 355 353 351 351 351 349 348 347 345 344 342 342 343 340 335 336 335 332 331 332 332 331 329 328 328 327 326 325 325 324 324 324 325 325 325 324 322 321 319 319 318 318 318 318 317 316 315 314 314 314 314 313 311 309 307 304 301 299 297 295 293 291 290 288 286 284 281 279 277 274 271 268 266 265 263 261
358 357 356 355 353 353 353 353 352 351 352 352 351 351 351 351 350 349 348 347 345 343 344 340 333 333 334 333 334 335 335 333 331 330 329 328 327 327 327 327 327 328 328 327 326 325 325 324 322 322 322 320 320 320 319 317 317 316 315 316 316 315 314 312 309 305 303 301 299 297 295 293 293 291 288 285 281 279 277 273 271 268 265 264 262 259
359 358 357 355 353 350 347 347 348 348 348 348 348 350 352 352 352 352 351 349 346 343 342 340 334 332 334 336 338 338 337 335 333 332 331 331 331 330 330 330 330 331 330 328 327 327 328 328 325 324 324 322 321 321 320 319 319 319 318 319 319 318 316 314 310 307 306 304 301 299 297 296 294 292 289 286 282 279 276 273 271 268 264 262 260 257
360 357 357 356 353 349 347 346 347 349 348 346 347 351 354 354 354 355 353 349 347 344 342 340 338 334 335 339 340 339 337 335 334 334 333 333 333 332 332 332 332 332 331 330 330 330 330 330 327 326 326 324 322 323 323 322 323 323 322 321 320 320 318 316 313 311 309 307 305 303 301 299 296 294 290 286 282 278 275 273 271 267 262 260 259 258
0 356 356 357 353 350 351 349 349 350 350 349 350 353 354 354 354 355 352 349 348 345 340 339 339 337 338 341 342 339 337 336 335 335 335 335 335 334 335 336 335 334 333 333 334 334 333 332 330 328 327 326 325 327 328 328 326 325 324 323 322 322 321 319 316 314 313 312 311 309 306 303 299 295 290 286 282 278 275 273 269 264 259 257 258 260
360 355 356 358 353 352 353 352 352 352 351 352 354 355 354 354 354 353 351 349 347 343 340 339 339 340 342 343 341 339 338 337 336 337 338 337 337 338 339 340 338 337 338 339 340 338 336 334 332 331 331 331 331 332 332 330 328 327 326 326 326 325 324 323 321 320 320 319 317 315 311 308 304 299 294 289 284 279 276 271 267 262 258 257 258 260
359 356 357 359 355 353 355 355 354 353 352 353 356 356 355 355 355 354 352 349 347 345 343 343 343 344 345 343 340 339 339 339 339 341 341 341 341 343 345 344 343 343 345 346 344 342 339 338 338 338 338 337 336 334 332 331 330 330 330 329 329 329 329 329 328 328 328 326 324 323 320 318 314 309 302 295 287 281 275 270 264 260 258 258 259 261
359 356 357 359 356 353 356 356 354 353 354 356 357 357 357 357 355 354 352 350 348 346 346 348 348 346 345 343 342 342 343 342 343 344 344 345 348 349 349 348 348 349 350 349 347 345 345 345 344 342 341 339 336 334 334 334 335 335 334 334 334 335 335 335 336 336 335 335 335 335 333 332 328 323 316 307 296 286 277 269 263 260 259 260 261 263
359 357 356 357 355 352 355 355 353 353 357 360 360 359 358 356 355 353 352 351 350 350 350 351 349 346 344 344 344 345 346 346 347 346 346 349 352 353 352 351 351 352 351 350 349 348 348 347 345 342 341 339 337 338 339 339 339 338 338 339 340 341 342 342 342 343 343 345 345 345 345 345 343 339 335 329 318 303 288 276 269 265 264 264 264 265
359 358 356 357 355 352 353 354 355 358 1 1 1 360 357 356 355 353 351 351 352 354 354 351 348 346 346 347 347 347 347 347 347 346 348 353 354 353 352 351 351 351 351 350 350 349 348 346 344 342 342 341 342 344 344 343 342 342 344 345 345 346 347 347 348 349 350 350 351 352 353 353 353 351 348 346 341 327 312 296 283 274 268 267 266 267
357 358 357 357 356 353 354 357 359 1 0 359 359 358 356 355 354 352 351 351 353 355 354 350 348 348 348 348 348 348 347 346 346 347 352 356 355 352 352 351 350 350 350 350 350 349 348 347 346 346 347 348 348 348 346 345 347 348 349 349 349 350 351 351 352 353 353 353 355 357 359 360 0 360 359 358 355 347 337 322 304 288 276 271 269 270
357 358 357 357 357 356 357 0 360 356 356 359 359 357 356 356 355 353 352 354 356 356 353 351 350 350 350 349 350 349 348 347 348 350 354 356 355 354 352 351 350 350 351 350 350 350 350 351 350 350 350 349 349 349 349 350 351 352 352 352 352 354 355 355 356 356 355 356 358 1 4 6 6 6 6 6 3 359 354 344 330 313 296 284 278 277
358 359 358 358 358 358 357 357 355 353 356 1 360 357 357 356 355 353 352 354 357 356 353 352 351 351 351 351 351 351 349 349 352 355 356 356 355 354 352 350 350 351 352 351 351 351 352 352 351 350 349 349 350 352 353 355 355 355 355 356 356 358 359 359 359 358 358 360 2 5 7 10 10 10 10 11 10 8 6 1 353 342 327 311 298 294
360 360 360 359 358 359 357 355 356 358 360 0 357 356 356 355 354 353 352 353 357 357 354 353 353 352 352 352 352 352 352 353 356 356 355 354 354 353 351 350 351 353 353 352 352 353 353 352 350 350 351 353 356 357 358 358 358 358 359 360 1 2 3 2 2 3 3 4 6 8 10 12 13 14 14 16 17 16 15 14 10 5 357 344 328 318
1 1 2 1 358 358 358 357 358 358 358 357 355 354 356 354 352 353 354 356 358 357 355 354 354 354 353 353 352 353 354 356 356 355 353 353 353 352 351 351 353 354 354 353 354 354 354 353 353 355 357 359 0 1 1 0 360 1 2 3 4 4 4 4 6 7 8 10 11 13 15 16 17 18 19 19 20 19 18 15 12 7 3 356 343 333
1 1 2 2 358 357 358 357 358 357 356 355 355 355 355 354 353 356 358 357 357 356 355 355 355 355 354 354 353 355 356 355 353 352 351 351 351 351 351 352 354 354 354 354 356 356 356 357 359 2 3 3 3 3 2 1 1 2 3 4 4 5 5 5 6 8 10 11 13 16 18 20 21 21 22 21 20 20 19 17 14 11 8 4 357 350
0 0 1 1 359 358 358 357 357 358 357 356 356 356 355 355 357 1 359 354 353 355 355 356 356 356 355 355 355 356 356 353 351 350 350 350 350 351 352 353 354 354 354 356 357 358 359 1 3 4 4 4 4 2 2 2 2 3 3 4 4 4 3 3 4 7 9 11 13 15 17 20 21 21 22 22 21 22 22 20 17 14 11 6 1 355
359 359 360 360 359 359 358 357 357 359 359 359 357 357 358 359 0 360 356 353 353 354 355 356 356 356 356 356 356 356 354 352 352 351 351 351 351 352 353 354 355 355 356 358 359 1 3 4 4 4 5 4 3 3 3 2 2 3 4 3 2 1 1 1 3 6 8 10 12 14 16 19 21 22 22 22 20 19 19 19 17 14 11 6 359 353
358 358 358 359 359 359 358 360 0 359 359 359 358 358 1 1 358 355 354 354 355 355 356 357 357 357 357 357 357 356 355 354 355 354 353 353 353 353 354 355 356 357 358 360 1 3 4 5 5 5 5 5 4 4 4 3 3 3 2 1 360 359 -0 2 4 6 8 10 13 15 17 19 20 21 21 20 18 16 15 16 17 16 11 6 360 355
358 360 359 358 359 360 359 360 359 356 356 358 358 358 359 359 356 355 355 355 356 357 358 358 357 357 358 358 358 357 356 357 356 356 355 355 354 354 355 356 357 358 359 1 2 4 5 6 5 5 6 6 5 5 5 4 3 2 1 0 360 1 3 5 6 8 10 13 14 16 18 20 20 20 20 19 19 19 18 17 18 16 12 8 5 1
359 0 358 357 358 359 356 354 353 353 355 357 357 358 358 357 357 357 357 356 357 358 358 358 358 358 359 359 359 358 358 358 358 357 357 356 355 356 356 357 359 359 0 2 3 4 6 6 6 6 6 7 7 6 6 6 4 3 3 3 4 6 8 8 9 10 12 14 15 16 18 19 20 20 20 20 21 21 21 19 18 15 13 11 9 5
358 359 359 357 357 356 355 353 353 355 356 356 357 358 358 357 358 358 358 358 358 358 359 359 358 359 359 360 0 360 360 360 359 359 358 357 357 357 358 359 360 0 1 2 3 5 6 6 7 7 7 7 8 8 8 8 8 8 8 8 10 12 13 12 12 13 14 15 16 18 18 19 20 20 20 21 21 22 21 19 16 13 12 12 10 7
358 358 359 358 357 357 357 356 357 357 357 357 358 359 358 358 359 359 359 359 359 358 359 359 359 360 0 1 1 1 1 1 0 360 359 359 359 359 359 0 1 1 2 3 4 5 6 7 8 8 7 7 8 9 9 10 11 12 12 13 15 15 15 15 15 15 15 15 16 17 18 18 18 17 17 18 19 19 17 15 13 11 11 11 11 10
357 357 358 358 358 357 356 355 356 357 356 357 359 359 359 359 360 359 360 360 359 359 360 360 0 1 2 2 3 3 2 2 2 1 0 0 0 1 1 1 2 2 3 3 4 5 6 6 7 7 7 8 9 10 10 11 13 15 15 16 17 16 15 16 16 15 15 15 15 17 18 17 16 14 13 14 14 14 12 10 9 8 10 12 12 11
357 357 357 357 357 357 356 356 358 359 358 359 359 359 359 360 359 359 0 0 360 0 1 1 1 2 3 3 3 3 3 3 3 2 2 2 2 2 2 2 2 3 3 4 4 4 5 5 6 6 7 8 9 10 11 12 14 16 17 17 17 17 16 15 15 16 16 16 16 16 16 16 15 14 13 11 9 9 10 10 8 7 9 11 11 10
357 357 357 357 358 358 358 359 360 359 358 358 358 358 359 360 359 360 0 0 1 2 2 2 2 3 3 4 4 5 5 4 3 3 3 3 3 3 3 3 3 3 4 4 4 4 4 5 5 5 6 7 9 10 11 12 14 15 16 17 16 16 15 14 14 16 16 17 16 15 14 14 13 13 13 11 8 6 7 10 11 11 11 9 8 9
357 356 357 358 358 357 357 358 359 358 357 357 357 358 359 359 360 360 0 1 2 2 2 3 3 4 4 5 5 6 5 5 4 4 3 4 4 4 4 4 4 3 4 5 4 4 4 4 4 4 4 6 8 9 10 12 13 14 15 15 14 14 14 13 14 15 15 16 15 13 12 11 10 10 10 10 8 7 6 7 10 12 12 10 7 8